Regional Weather Roundup
Issued by NWS Charleston, SC

Current Version | Previous Version | Graphics & Text | Print | Product List | Glossary On
Versions: 1 2 3 4 5 6 7 8 9 10 11 12 13 14 15 16 17 18 19 20 21 22 23 24 25 26 27 28 29 30 31 32 33 34 35 36 37 38 39 40 41 42 43 44 45 46 47 48 49 50
000
ASUS42 KCHS 281527
RWRCHS

REGIONAL WEATHER ROUNDUP
NATIONAL WEATHER SERVICE CHARLESTON SC
1000 AM EST TUE FEB 28 2017

NOTE: "FAIR" INDICATES FEW OR NO CLOUDS BELOW 12,000 FEET WITH NO
SIGNIFICANT WEATHER AND/OR OBSTRUCTIONS TO VISIBILITY.

NOT ALL STATIONS ARE QUALITY CONTROLLED. USE DATA WITH CAUTION...
ESPECIALLY DEWPOINT OBSERVATIONS.

SCZ027-030-031-034>040-042>050-281600-
...SOUTHEAST SOUTH CAROLINA...

CITY           SKY/WX    TMP DP  RH WIND       PRES   REMARKS
N CHARLESTON   PTSUNNY   74  63  68 SW10      30.30F
WATERFRONT PRK   N/A     68  65  90 CALM      30.29S
MOUNT PLEASANT PTSUNNY   73  64  73 S13       30.30S
JOHNS ISLAND   CLOUDY    72  68  88 S9        30.30F
PINOPOLIS        N/A     72  64  78 VRB2      30.21F
MONCKS CORNER  CLOUDY    72  61  68 S10       30.30R
SUMMERVILLE    CLOUDY    72  63  73 S6        30.31S
BEAUFORT MCAS  CLOUDY    69  67  93 SE5       30.30S
BEAUFORT ARPT  CLOUDY    68  64  88 S7        30.30S
HILTON HEAD IS CLOUDY    70  66  88 S9        30.30S
WALTERBORO     CLOUDY    70  63  78 S6        30.31S
ALLENDALE      FAIR      72  64  78 SE6       30.27F

...SOUTHERN MIDLANDS AND PEE DEE...

CITY           SKY/WX    TMP DP  RH WIND       PRES   REMARKS
GEORGETOWN     FAIR      73  63  68 S8        30.30F
KINGSTREE      FAIR      72  61  68 S5        30.30S
ORANGEBURG     PTSUNNY   71  63  75 S8        30.30S
BARNWELL       FAIR      73  64  73 VRB6      30.28F
AIKEN          FAIR      68  59  73 S9        30.30F
MANNING        CLOUDY    68  34  28 MISG      30.31R
COLUMBIA       MOSUNNY   69  57  65 CALM      30.28F
SUMTER         SUNNY     69  58  68 S5        30.28S
FLORENCE       PTSUNNY   69  60  73 SE5       30.30F
MYRTLE BEACH   MOSUNNY   73  64  73 MISG      30.30F
N MYRTLE BEACH SUNNY     71  65  81 SW7       30.30S

$$

GAZ063-065-086>088-099>101-113>116-118-119-134>141-150-281600-
...SOUTHEAST GEORGIA...

CITY           SKY/WX    TMP DP  RH WIND       PRES   REMARKS
SAVANNAH ARPT  MOSUNNY   72  63  73 SE7       30.29F
HUNTER AAF     PTSUNNY   73  70  88 SW3       30.27F
FORT STEWART   MOSUNNY   70  64  81 CALM      30.27F
STATESBORO     PTSUNNY   71  67  86 S6        30.29S
SYLVANIA       MOSUNNY  N/A N/A N/A CALM      30.29F
CLAXTON        PTSUNNY  N/A N/A N/A CALM      30.29S

...CSRA...CENTRAL AND FAR SOUTHEAST GEORGIA...

CITY           SKY/WX    TMP DP  RH WIND       PRES   REMARKS
THOMSON        SUNNY     68  61  77 CALM      30.32S
AUGUSTA-BUSH   SUNNY     69  60  73 SE8       30.27F
AUGUSTA-DANIEL SUNNY     67  57  70 SE6       30.28F
SWAINSBORO     PTSUNNY   68  63  83 S3        30.30S
VIDALIA        CLOUDY    68  66  94 CALM      30.30R
EASTMAN        CLOUDY    65  65 100 SE5       30.31F
HAZLEHURST     CLOUDY    66  66 100 CALM      30.29R
ALMA           CLOUDY    63  63 100 CALM      30.29S FOG
WAYCROSS       CLOUDY    67  67 100 CALM      30.29S
JESUP          CLOUDY    68  63  83 CALM      30.29F
BAXLEY         CLOUDY    64  64 100 CALM      30.30R FOG
BRUNSWICK      CLOUDY    64  64 100 CALM      30.30F FOG
SAINT SIMONS   SUNNY     71  65  81 CALM      30.29F

$$

SCZ027-028-034-036>038-045-046-048>050-GAZ119-141-281600-
...LAKE AND SUPPLEMENTAL COASTAL OBSERVATIONS...

STATION/POSITION TIME  TEMP    WIND        PRES    WAVE   SWELL
                       AIR SEA DIR/SP/G            HT/PER HT/PER/DIR
                 (UTC) (F)     (DEG/KT/KT) (MB)    (FT/S) (FT/S/D)
WINYAH BAY       1430   71     210/  7     1026.0S
LAKE MURRAY      1450   69        CALM     1025.1F
ACE BASIN NERRS  1430   67        CALM     1026.0S
FORT PULASKI     1500   69 63  200/  5/  8 1026.2
SAPELO ISLAND    1500   65        CALM     1026.0

$$

ANZ835-935-AMZ111-154-330-350-352-354-370-450-454-472-281600-
...C-MAN AND BUOY OBSERVATIONS...

STATION/POSITION TIME  TEMP    WIND        PRES    WAVE   SWELL
                       AIR SEA DIR/SP/G            HT/PER HT/PER/DIR
                 (UTC) (F)     (DEG/KT/KT) (MB)    (FT/S) (FT/S/D)
BUOY 41004       1450   70 68  210/ 10/ 12 1025.7R   6/ 7   5/140/ 7
BUOY 41008       1450   67 63  160/  8/  8 1025.6S   3/ 7   3/100/ 7
FOLLY BEACH CMAN 1500   65     200/  5/  6 1026.5F
CAPERS NEARSHORE 1408   65 61  260/  4/  6 1026.0R
FRIPP NEARSHORE  1508   65 62  200/  6/ 10 1025.6F


STATION/POSITION TIME  TEMP    WIND        PRES    WAVE   SWELL
                       AIR SEA DIR/SP/G            HT/PER HT/PER/DIR
                 (UTC) (F)     (DEG/KT/KT) (MB)    (FT/S) (FT/S/D)
5E ST. MARYS GA  1500      65                N/A     3/ 6
FRYING PAN BUOY  1510   69 70   30/  6/  8 1027.2
BUOY 41025       1450   71 72  190/ 17/ 21 1027.1F   4/ 5   2/100/ 8
CAPE LOOKOUT NC  1500   66     180/ 11/ 13 1027.3R
BUOY 41002       1450   70 70  120/ 12/ 14 1029.1R   4/ 5   3/ 70/ 7
BUOY 41010       NOT AVBL
ST AUGUSTINE FL  1500   71 68  160/ 10/ 10 1026.7F


$$




USA.gov is the U.S. government's official web portal to all federal, state and local government web resources and services.